Погода в Приветном

Россия / Республика Крым     44°49′19″N   34°40′39″E
темп.,
°C
ветер,
м/с
пор.,
м/с
влажн.,
%
обл.,
%
осадки,
мм/ч
давл.,
гПа
погр.,
м
25 июля, вс
вс2500:00+22с44490 0.0 1015131
03:00+22с55560 0.0 1015171
06:00+22с55620 0.0 1015193
09:00+25ссв56540 0.0 1015596
12:00+27в34500 0.0 1015755
15:00+28вюв34520 0.0 1015822
18:00+28всв13530 0.0 1014630
21:00+24с576276 0.0 1016150
26 июля, пн
пн2600:00+25с685859 0.0 1015137
03:00+24с6767100 0.0 1015113
06:00+24с676766 0.0 1015130
09:00+27ссв565454 0.0 1015303
12:00+28св46568 0.0 1016687
15:00+28св675560 0.0 1015670
18:00+28с68506 0.0 1015314
21:00+25ссз676254 0.1 1016104
27 июля, вт
вт2700:00+26с796143 0.0 1016156
03:00+25с69660 0.0 1016138
06:00+24ссз66671 0.0 101694
09:00+28св465521 0.0 1016303
12:00+28в465717 0.0 1017931
15:00+28ююв345415 0.0 1017942
18:00+28з235514 0.0 1017279
21:00+26ссз44570 0.0 101731
28 июля, ср
ср2800:00+25с55590 0.0 101869
03:00+24ссв33760 0.1 1018170
06:00+23св34690 0.0 1018179
09:00+26в45520 0.0 1018508
12:00+26вюв56532 0.0 1018651
15:00+26юв23525 0.0 1017307
18:00+26сз12495 0.0 1016221
21:00+26сз33525 0.0 101621
29 июля, чт
чт2900:00+24с33565 0.0 101643
03:00+24ссз44520 0.0 101543
06:00+24с44510 0.0 101541
09:00+27юв22480 0.0 1015306
12:00+27ю22500 0.0 1014240
15:00+26юз33530 0.0 1014262
18:00+25з33560 0.0 1013158
21:00+25з33640 0.0 101374